Regional Weather Roundup
Issued by NWS Cleveland, OH

Home | Current Version | Previous Version | Graphics & Text | Print | Product List | Glossary On
Versions: 1 2 3 4 5 6 7 8 9 10 11 12 13 14 15 16 17 18 19 20 21 22 23 24 25 26 27 28 29 30 31 32 33 34 35 36 37 38 39 40 41 42 43 44 45 46 47 48 49 50
000
ASUS41 KCLE 210310
RWRCLE
OHIO REGIONAL WEATHER ROUNDUP
NATIONAL WEATHER SERVICE WILMINGTON, OH
1100 PM EDT THU JUL 20 2017

NOTE: "FAIR" INDICATES FEW OR NO CLOUDS BELOW 12,000 FEET WITH NO
SIGNIFICANT WEATHER AND/OR OBSTRUCTIONS TO VISIBILITY.

OHZ001>008-015>018-024>027-034-035-043-044-210400-
   NORTHWEST OHIO

CITY           SKY/WX    TMP DP  RH WIND       PRES   REMARKS
DEFIANCE       CLOUDY   N/A N/A N/A CALM      29.97R
FINDLAY        MOCLDY    78  71  79 S6        29.97S
TOLEDO EXPRESS FAIR      75  72  90 CALM      29.96R
TOLEDO EXEC    FAIR      78  72  81 SW3       29.96S
LIMA           MOCLDY    78  74  87 SE6       29.99S
$$

OHZ009>014-019>023-028>033-038-089-210400-
   NORTHEAST OHIO

CITY           SKY/WX    TMP DP  RH WIND       PRES   REMARKS
CLE-HOPKINS    FAIR      81  69  67 SW3       29.98S
CLE-LAKEFRONT  FAIR      79  70  74 CALM      29.95S
CUY CO. ARPT   PTCLDY    75  63  64 SW5       29.97S
LORAIN-ELYRIA  FAIR      73  67  81 CALM      29.97S
ASHTABULA      FAIR      70  69  97 CALM      29.98R
AKRON-CANTON   MOCLDY    79  71  76 SW7       30.00R
WOOSTER        FAIR      74  72  93 SW3       30.00S
MANSFIELD      MOCLDY    76  71  85 SW3       30.01R
YOUNGSTOWN     MOCLDY    72  68  87 CALM      29.99S
$$

OHZ042-051>053-060>062-070>072-077>081-210400-
  SOUTHWEST OHIO

CITY           SKY/WX    TMP DP  RH WIND       PRES   REMARKS
CINC-COVINGTON CLOUDY    83  74  74 SW5       30.02R
CINC-LUNKEN    CLOUDY    81  76  84 CALM      30.01R
HAMILTON       FAIR      77  75  93 CALM      30.01R
DAYTON         MOCLDY    81  75  82 SW9       30.01S
WRIGHT-PAT AFB FAIR      78  78 100 S5        30.00S
DAYTON GENERAL FAIR      82  72  71 SW6       30.01R
WILMINGTON     MOCLDY    80  78  94 SW5       30.02R
$$

OHZ036-037-039>041-045>050-054>059-063>069-073>076-082>088-210400-
  CENTRAL AND SOUTHEAST OHIO

CITY           SKY/WX    TMP DP  RH WIND       PRES   REMARKS
COLUMBUS       CLOUDY    82  74  76 S3        29.99S
OSU AIRPORT    CLOUDY    81  75  82 S3        30.00S
BOLTON FIELD   CLOUDY    78  76  94 CALM      30.01S
RICKENBACK AFB CLOUDY    78  75  90 S5        30.00S
NEWARK         MOCLDY    76  73  91 CALM      30.00S
MARION         CLOUDY    79  70  74 SW7       30.00S
LANCASTER      MOCLDY    76  74  93 S3        30.01S
ZANESVILLE     FAIR      78  71  79 SW3       30.01R
NEW PHILLY     FAIR      73  72  96 CALM      30.00S
$$




USA.gov is the U.S. government's official web portal to all federal, state and local government web resources and services.